Weather History for Provo, UT

Change the Weather History Date:

Thursday, January 17, 2013

  Actual Average Record
Temperature  
Mean Temperature 10 °F -  
Max Temperature 17 °F 35 °F 53 °F (2000)
Min Temperature 3 °F 21 °F -5 °F (1997)
Degree Days  
Heating Degree Days 55    
Moisture  
Dew Point 6 °F    
Average Humidity 89    
Maximum Humidity 100    
Minimum Humidity 79    
Precipitation  
Precipitation 0.00 in - - ()
Sea Level Pressure  
Sea Level Pressure 30.58 in    
Wind  
Wind Speed 0 mph (North)    
Max Wind Speed 0 mph    
Max Gust Speed -    
Visibility 5 miles    
Events      
Averages and records for this station are not official NWS values.
T = Trace of Precipitation, MM = Missing Value Source: NWS Daily Summary

Daily Weather History Graph

Daily Weather History Graph

Search for Another Location

Airport:

Trip Planner

Search our weather history database for the weather conditions in past years. The results will help you decide how hot, cold, wet, or windy it might be!

Date:

Astronomy

Jan. 17, 2013 Rise Set
Actual Time 7:46 AM MST 5:28 PM MST
Civil Twilight 7:16 AM MST 5:57 PM MST
Nautical Twilight 6:43 AM MST 6:31 PM MST
Astronomical Twilight 6:10 AM MST 7:03 PM MST
Moon 10:54 AM MST (1/17) No Moon Set
Length of Visible Light 10h 41m
Length of Day
9h 41m
Waxing Crescent, 38% of the Moon is Illuminated
Jan 17
Waxing Crescent
Jan 18
First Quarter
Jan 26
Full
Feb 3
Last Quarter
Feb 10
New

Hourly Weather History & Observations

Time (MST) Temp. Dew Point Humidity Pressure Visibility Wind Dir Wind Speed Gust Speed Precip Events Conditions
12:15 AM 10.4 °F 8.6 °F 92% 30.61 in 7.0 mi Calm Calm - N/A   Clear
12:35 AM 8.6 °F 8.6 °F 100% 30.60 in 7.0 mi Calm Calm - N/A   Clear
1:15 AM 8.6 °F 6.8 °F 92% 30.61 in 5.0 mi Calm Calm - N/A   Clear
1:35 AM 10.4 °F 6.8 °F 85% 30.60 in 7.0 mi Calm Calm - N/A   Clear
1:55 AM 8.6 °F 6.8 °F 92% 30.60 in 7.0 mi Calm Calm - N/A   Clear
2:15 AM 8.6 °F 5.0 °F 85% 30.60 in 6.0 mi Calm Calm - N/A   Clear
2:35 AM 6.8 °F 6.8 °F 100% 30.61 in 5.0 mi Calm Calm - N/A   Clear
2:55 AM 6.8 °F 6.8 °F 100% 30.60 in 5.0 mi Calm Calm - N/A   Clear
3:15 AM 6.8 °F 3.2 °F 85% 30.60 in 5.0 mi Calm Calm - N/A   Clear
3:35 AM 5.0 °F 3.2 °F 92% 30.60 in 4.0 mi Calm Calm - N/A   Clear
3:55 AM 6.8 °F 5.0 °F 92% 30.60 in 5.0 mi Calm Calm - N/A   Clear
4:15 AM 5.0 °F 3.2 °F 92% 30.60 in 5.0 mi Calm Calm - N/A   Clear
4:35 AM 5.0 °F 3.2 °F 92% 30.60 in 5.0 mi Calm Calm - N/A   Clear
4:55 AM 5.0 °F 3.2 °F 92% 30.60 in 5.0 mi Calm Calm - N/A   Clear
5:15 AM 5.0 °F 1.4 °F 85% 30.60 in 3.0 mi Calm Calm - N/A   Clear
5:35 AM 3.2 °F -0.4 °F 85% 30.60 in 7.0 mi Calm Calm - N/A   Clear
5:55 AM 3.2 °F 1.4 °F 92% 30.60 in 4.0 mi Calm Calm - N/A   Clear
6:15 AM 3.2 °F 1.4 °F 92% 30.60 in 5.0 mi Calm Calm - N/A   Clear
6:35 AM 3.2 °F 1.4 °F 92% 30.60 in 5.0 mi Calm Calm - N/A   Clear
6:50 AM 3.2 °F 1.4 °F 92% 30.60 in 8.0 mi Calm Calm - N/A   Partly Cloudy
7:50 AM 3.2 °F -0.4 °F 85% 30.63 in 6.0 mi Calm Calm - N/A   Haze
9:50 AM 8.6 °F 6.8 °F 92% 30.66 in 5.0 mi Calm Calm - N/A   Haze
11:47 AM 10.4 °F 8.6 °F 92% 30.62 in 5.0 mi Calm Calm - N/A   Haze
12:50 PM 15.8 °F 10.4 °F 79% 30.57 in 5.0 mi Calm Calm - N/A   Haze
1:50 PM 17.6 °F 12.2 °F 79% 30.56 in 5.0 mi Calm Calm - N/A   Haze
2:59 PM 17.6 °F 12.2 °F 79% 30.54 in 6.0 mi Calm Calm - N/A   Haze
4:47 PM 15.8 °F 12.2 °F 86% 30.54 in 5.0 mi Calm Calm - N/A   Haze
5:47 PM 14.0 °F 10.4 °F 86% 30.53 in 5.0 mi North - - N/A   Haze
6:58 PM 12.2 °F 10.4 °F 92% 30.53 in 5.0 mi Calm Calm - N/A   Haze
7:47 PM 12.2 °F 8.6 °F 85% 30.53 in 5.0 mi Calm Calm - N/A   Haze
8:50 PM 10.4 °F 8.6 °F 92% 30.52 in 5.0 mi Calm Calm - N/A   Haze
9:15 PM 10.4 °F 8.6 °F 92% 30.52 in 3.0 mi Calm Calm - N/A   Clear
9:35 PM 8.6 °F 5.0 °F 85% 30.52 in 3.0 mi Calm Calm - N/A   Clear
9:55 PM 8.6 °F 5.0 °F 85% 30.53 in 2.5 mi Calm Calm - N/A   Clear
10:15 PM 8.6 °F 6.8 °F 92% 30.53 in 2.5 mi Calm Calm - N/A   Clear
10:35 PM 6.8 °F 5.0 °F 92% 30.53 in 2.5 mi Calm Calm - N/A   Clear
10:55 PM 6.8 °F 5.0 °F 92% 30.53 in 2.5 mi Calm Calm - N/A   Clear
11:15 PM 6.8 °F 3.2 °F 85% 30.53 in 3.0 mi Calm Calm - N/A   Clear
11:35 PM 5.0 °F 1.4 °F 85% 30.53 in 3.0 mi Calm Calm - N/A   Clear
11:55 PM 6.8 °F 5.0 °F 92% 30.53 in 2.5 mi Calm Calm - N/A   Clear